Weather History for Fallon NAS, NV

Change the Weather History Date:

Monday, January 27, 2014

  Actual Average Record
Temperature  
Mean Temperature 36 °F -  
Max Temperature 55 °F 47 °F 60 °F (1992)
Min Temperature 18 °F 20 °F -19 °F (1949)
Degree Days  
Heating Degree Days 28    
Moisture  
Dew Point 16 °F    
Average Humidity 46    
Maximum Humidity 68    
Minimum Humidity 22    
Precipitation  
Precipitation 0.00 in - - ()
Sea Level Pressure  
Sea Level Pressure 30.07 in    
Wind  
Wind Speed 2 mph (East)    
Max Wind Speed 9 mph    
Max Gust Speed -    
Visibility 10 miles    
Events      
Averages and records for this station are not official NWS values.
T = Trace of Precipitation, MM = Missing Value Source: NWS Daily Summary

Daily Weather History Graph

Daily Weather History Graph

Search for Another Location

Airport:

Trip Planner

Search our weather history database for the weather conditions in past years. The results will help you decide how hot, cold, wet, or windy it might be!

Date:

Astronomy

Jan. 27, 2014 Rise Set
Actual Time 7:06 AM PST 5:09 PM PST
Civil Twilight 6:37 AM PST 5:38 PM PST
Nautical Twilight 6:05 AM PST 6:10 PM PST
Astronomical Twilight 5:33 AM PST 6:42 PM PST
Moon 3:52 AM PST (1/27) 2:00 PM PST (1/27)
Length of Visible Light 11h 00m
Length of Day
10h 03m
Waning Crescent, 14% of the Moon is Illuminated
Jan 27
Waning Crescent
Jan 30
New
Feb 6
First Quarter
Feb 14
Full
Feb 22
Last Quarter

Hourly Weather History & Observations

Time (PST) Temp. Windchill Dew Point Humidity Pressure Visibility Wind Dir Wind Speed Gust Speed Precip Events Conditions
12:56 AM 24.1 °F - 14.0 °F 65% 30.04 in 10.0 mi Calm Calm - N/A   Clear
1:56 AM 19.9 °F - 10.0 °F 65% 30.04 in 10.0 mi Calm Calm - N/A   Clear
2:56 AM 21.9 °F - 10.9 °F 63% 30.04 in 10.0 mi Calm Calm - N/A   Clear
3:56 AM 23.0 °F 13.9 °F 10.9 °F 60% 30.03 in 10.0 mi South 8.1 mph - N/A   Clear
4:56 AM 24.1 °F - 12.0 °F 60% 30.05 in 10.0 mi Calm Calm - N/A   Clear
5:56 AM 21.0 °F 14.6 °F 10.9 °F 65% 30.06 in 10.0 mi East 4.6 mph - N/A   Clear
6:18 AM 18.0 °F 8.7 °F 9.0 °F 68% 30.16 in 10.0 mi East 6.9 mph - N/A   Partly Cloudy
6:56 AM 19.0 °F - 10.0 °F 68% 30.07 in 10.0 mi Calm Calm - N/A   Mostly Cloudy
7:56 AM 27.0 °F 21.6 °F 14.0 °F 58% 30.08 in 10.0 mi SSE 4.6 mph - N/A   Mostly Cloudy
8:56 AM 33.1 °F - 16.0 °F 50% 30.10 in 10.0 mi Calm Calm - N/A   Mostly Cloudy
9:56 AM 42.1 °F 40.2 °F 16.0 °F 35% 30.11 in 10.0 mi SSE 3.5 mph - N/A   Overcast
10:56 AM 46.0 °F 44.8 °F 16.0 °F 30% 30.10 in 10.0 mi SSW 3.5 mph - N/A   Overcast
11:56 AM 50.0 °F - 16.0 °F 26% 30.08 in 10.0 mi Calm Calm - N/A   Overcast
12:56 PM 52.0 °F - 16.0 °F 24% 30.06 in 10.0 mi Calm Calm - N/A   Overcast
1:56 PM 55.0 °F - 16.0 °F 22% 30.06 in 10.0 mi Variable 3.5 mph - N/A   Overcast
2:56 PM 55.0 °F - 16.0 °F 22% 30.05 in 10.0 mi NE 3.5 mph - N/A   Overcast
3:56 PM 54.0 °F - 16.0 °F 22% 30.04 in 10.0 mi ENE 3.5 mph - N/A   Overcast
4:56 PM 52.0 °F - 17.1 °F 25% 30.05 in 10.0 mi Calm Calm - N/A   Overcast
5:56 PM 46.9 °F - 19.0 °F 33% 30.06 in 10.0 mi NE 5.8 mph - N/A   Overcast
6:56 PM 45.0 °F 41.8 °F 19.9 °F 37% 30.06 in 10.0 mi ENE 5.8 mph - N/A   Overcast
7:56 PM 44.1 °F 39.0 °F 21.0 °F 40% 30.07 in 10.0 mi NNE 9.2 mph - N/A   Mostly Cloudy
8:56 PM 42.1 °F 37.1 °F 21.9 °F 45% 30.07 in 10.0 mi West 8.1 mph - N/A   Mostly Cloudy
9:56 PM 41.0 °F 38.0 °F 23.0 °F 49% 30.07 in 10.0 mi North 4.6 mph - N/A   Mostly Cloudy
10:56 PM 37.9 °F - 21.9 °F 53% 30.08 in 10.0 mi Calm Calm - N/A   Partly Cloudy
11:56 PM 37.0 °F 33.3 °F 21.9 °F 54% 30.09 in 10.0 mi North 4.6 mph - N/A   Mostly Cloudy